Weather History for Hatteras, NC

Change the Weather History Date:

Wednesday, November 21, 2012

  Actual Average Record
Temperature  
Mean Temperature 57 °F 56 °F  
Max Temperature 60 °F 63 °F 77 °F (1931)
Min Temperature 53 °F 50 °F 28 °F (1879)
Degree Days  
Heating Degree Days 8 9  
Month to date heating degree days 225 146  
Since 1 July heating degree days 287 221  
Cooling Degree Days 0 1  
Month to date cooling degree days 0 21  
Year to date cooling degree days 2090 1711  
Growing Degree Days 6 (Base 50)    
Moisture  
Dew Point 50 °F    
Average Humidity 84    
Maximum Humidity 93    
Minimum Humidity 75    
Precipitation  
Precipitation 0.00 in 0.15 in 4.38 in (2006)
Month to date precipitation 1.09 3.61  
Year to date precipitation 51.20 52.43  
Snow  
Snow 0.00 in - - ()
Month to date snowfall 0.0  
Since 1 July snowfall 0.0  
Snow Depth 0.00 in    
Sea Level Pressure  
Sea Level Pressure 30.04 in    
Wind  
Wind Speed 11 mph (NNE)    
Max Wind Speed 17 mph    
Max Gust Speed 31 mph    
Visibility 10 miles    
Events      
T = Trace of Precipitation, MM = Missing Value Source: NWS Daily Summary

Daily Weather History Graph

Daily Weather History Graph

Search for Another Location

Airport:

Trip Planner

Search our weather history database for the weather conditions in past years. The results will help you decide how hot, cold, wet, or windy it might be!

Date:

Astronomy

Nov. 21, 2012 Rise Set
Actual Time 6:43 AM EST 4:52 PM EST
Civil Twilight 6:16 AM EST 5:20 PM EST
Nautical Twilight 5:45 AM EST 5:51 PM EST
Astronomical Twilight 5:15 AM EST 6:21 PM EST
Moon 12:56 PM EST (11/21) 12:14 AM EST (11/21)
Length of Visible Light 11h 03m
Length of Day
10h 09m
First Quarter, 61% of the Moon is Illuminated
Nov 21
First Quarter
Nov 28
Full
Dec 6
Last Quarter
Dec 13
New
Dec 20
First Quarter

Hourly Weather History & Observations

Time (EST) Temp. Dew Point Humidity Pressure Visibility Wind Dir Wind Speed Gust Speed Precip Events Conditions
12:51 AM 54.0 °F 48.9 °F 83% 30.02 in 10.0 mi North 10.4 mph 20.7 mph N/A   Overcast
1:48 AM 53.6 °F 50.0 °F 88% 30.01 in 10.0 mi NNE 10.4 mph 17.3 mph N/A   Overcast
1:51 AM 53.1 °F 50.0 °F 89% 30.01 in 10.0 mi Variable 6.9 mph 17.3 mph N/A   Mostly Cloudy
2:16 AM 53.6 °F 50.0 °F 88% 30.01 in 10.0 mi NNE 11.5 mph 19.6 mph N/A   Overcast
2:51 AM 54.0 °F 50.0 °F 86% 30.01 in 10.0 mi NNE 9.2 mph 23.0 mph N/A   Overcast
3:44 AM 53.6 °F 51.8 °F 94% 30.00 in 10.0 mi NNE 10.4 mph 21.9 mph N/A   Overcast
3:51 AM 54.0 °F 51.1 °F 90% 30.00 in 10.0 mi NNE 11.5 mph 21.9 mph N/A   Overcast
4:51 AM 55.0 °F 52.0 °F 89% 30.01 in 10.0 mi NNE 8.1 mph 17.3 mph N/A   Overcast
5:51 AM 55.0 °F 52.0 °F 89% 30.02 in 10.0 mi NNE 10.4 mph 18.4 mph N/A   Overcast
6:51 AM 55.0 °F 52.0 °F 89% 30.04 in 10.0 mi NNE 9.2 mph 18.4 mph N/A   Overcast
7:46 AM 55.4 °F 51.8 °F 88% 30.04 in 10.0 mi NNE 10.4 mph 19.6 mph N/A   Overcast
7:51 AM 55.9 °F 52.0 °F 87% 30.04 in 10.0 mi NNE 8.1 mph 23.0 mph N/A   Overcast
8:14 AM 55.4 °F 51.8 °F 88% 30.05 in 10.0 mi NNE 8.1 mph 20.7 mph N/A   Overcast
8:51 AM 55.9 °F 52.0 °F 87% 30.05 in 10.0 mi NNE 8.1 mph 18.4 mph N/A   Overcast
9:24 AM 57.2 °F 51.8 °F 82% 30.05 in 10.0 mi NNE 11.5 mph 20.7 mph N/A   Mostly Cloudy
9:33 AM 57.2 °F 51.8 °F 82% 30.05 in 10.0 mi NNE 10.4 mph 20.7 mph N/A   Scattered Clouds
9:51 AM 57.9 °F 52.0 °F 81% 30.06 in 10.0 mi NNE 10.4 mph 20.7 mph N/A   Clear
10:51 AM 59.0 °F 52.0 °F 78% 30.06 in 10.0 mi NNE 10.4 mph 23.0 mph N/A   Clear
11:08 AM 57.2 °F 51.8 °F 82% 30.06 in 10.0 mi NNE 11.5 mph 21.9 mph N/A   Mostly Cloudy
11:18 AM 59.0 °F 51.8 °F 77% 30.05 in 10.0 mi NNE 10.4 mph 20.7 mph N/A   Overcast
11:35 AM 59.0 °F 51.8 °F 77% 30.04 in 10.0 mi NNE 10.4 mph 23.0 mph N/A   Overcast
11:51 AM 59.0 °F 51.1 °F 75% 30.04 in 10.0 mi NNE 11.5 mph 25.3 mph N/A   Overcast
12:51 PM 57.9 °F 51.1 °F 78% 30.03 in 10.0 mi NNE 11.5 mph 24.2 mph N/A   Mostly Cloudy
1:13 PM 57.2 °F 50.0 °F 77% 30.03 in 10.0 mi NNE 13.8 mph 27.6 mph N/A   Mostly Cloudy
1:39 PM 57.2 °F 51.8 °F 82% 30.04 in 10.0 mi North 12.7 mph 21.9 mph N/A   Overcast
1:51 PM 55.9 °F 50.0 °F 80% 30.04 in 10.0 mi NNE 12.7 mph 25.3 mph N/A   Overcast
2:51 PM 57.0 °F 50.0 °F 77% 30.03 in 10.0 mi North 12.7 mph 25.3 mph N/A   Overcast
3:51 PM 55.9 °F 50.0 °F 80% 30.04 in 10.0 mi NNE 11.5 mph 21.9 mph N/A   Overcast
4:42 PM 55.4 °F 50.0 °F 82% 30.04 in 10.0 mi NNE 12.7 mph 27.6 mph N/A   Overcast
4:51 PM 55.0 °F 50.0 °F 83% 30.04 in 10.0 mi NNE 15.0 mph 26.5 mph N/A   Overcast
5:24 PM 55.4 °F 48.2 °F 77% 30.05 in 10.0 mi NNE 12.7 mph 25.3 mph N/A   Overcast
5:39 PM 55.4 °F 48.2 °F 77% 30.06 in 10.0 mi NNE 10.4 mph 24.2 mph N/A   Overcast
5:51 PM 54.0 °F 48.9 °F 83% 30.06 in 10.0 mi NNE 11.5 mph 26.5 mph N/A   Overcast
6:16 PM 53.6 °F 48.2 °F 82% 30.06 in 10.0 mi NNE 15.0 mph 31.1 mph N/A   Overcast
6:51 PM 54.0 °F 48.0 °F 80% 30.06 in 10.0 mi NNE 13.8 mph 27.6 mph N/A   Mostly Cloudy
7:51 PM 54.0 °F 48.0 °F 80% 30.08 in 10.0 mi NNE 12.7 mph 25.3 mph N/A   Overcast
8:31 PM 53.6 °F 48.2 °F 82% 30.07 in 10.0 mi NNE 9.2 mph 29.9 mph N/A   Partly Cloudy
8:51 PM 53.1 °F 48.0 °F 83% 30.07 in 10.0 mi NNE 12.7 mph 26.5 mph N/A   Partly Cloudy
9:13 PM 53.6 °F 46.4 °F 77% 30.07 in 10.0 mi NNE 11.5 mph 24.2 mph N/A   Mostly Cloudy
9:51 PM 53.1 °F 46.9 °F 80% 30.06 in 10.0 mi North 15.0 mph 29.9 mph N/A   Mostly Cloudy
10:51 PM 53.1 °F 48.0 °F 83% 30.06 in 10.0 mi NNE 13.8 mph 26.5 mph N/A   Mostly Cloudy
11:51 PM 53.1 °F 48.0 °F 83% 30.05 in 10.0 mi NNE 11.5 mph 27.6 mph N/A   Overcast